Location: Cerezo de Arriba
(41.2389°N, 3.5585°W)
Time: 16:30:11
(UTC+00:00)

NOSS 3-1 (A) - Pass Details

Date: 19 May 2025
Orbit: 639 x 1568 km, 63.4° (Epoch: 20 June)

Event Time Altitude Azimuth Distance (km) Brightness Sun altitude
Exits shadow 22:37:39 25° 241° (WSW) 1,401 4.3 -25.1°
Maximum altitude 22:40:20 55° 310° (NW) 886 3.5 -25.3°
Drops below altitude 10° 22:45:50 10° 29° (NNE) 2,495 6.1 -25.7°
Sets 22:48:39 0° 33° (NNE) 3,580 6.9 -25.9°
